TimeEDT,TemperatureF,Dew PointF,Humidity,Sea Level PressureIn,VisibilityMPH,Wind Direction,Wind SpeedMPH,Gust SpeedMPH,PrecipitationIn,Events,Conditions,WindDirDegrees,DateUTC
12:54 AM,41.0,34.0,76,30.27,10.0,South,8.1,-,N/A,,Clear,170,2013-03-11 04:54:00
1:54 AM,39.9,34.0,79,30.26,10.0,SE,6.9,-,N/A,,Clear,140,2013-03-11 05:54:00
2:54 AM,39.0,34.0,82,30.27,10.0,SSE,4.6,-,N/A,,Partly Cloudy,150,2013-03-11 06:54:00
3:08 AM,39.2,35.6,87,30.24,10.0,SE,3.5,-,N/A,,Mostly Cloudy,140,2013-03-11 07:08:00
3:54 AM,39.9,36.0,86,30.23,10.0,ESE,4.6,-,N/A,,Overcast,120,2013-03-11 07:54:00
4:23 AM,41.0,37.4,87,30.20,10.0,Calm,Calm,-,N/A,,Overcast,0,2013-03-11 08:23:00
4:54 AM,41.0,37.9,89,30.22,9.0,SSE,4.6,-,N/A,,Overcast,160,2013-03-11 08:54:00
5:34 AM,41.0,37.4,87,30.20,8.0,SE,3.5,-,N/A,,Overcast,130,2013-03-11 09:34:00
5:54 AM,41.0,37.9,89,30.22,8.0,SE,3.5,-,N/A,,Overcast,140,2013-03-11 09:54:00
6:54 AM,42.1,39.0,89,30.21,8.0,Calm,Calm,-,N/A,,Overcast,0,2013-03-11 10:54:00
7:22 AM,41.0,37.4,87,30.19,10.0,SSE,5.8,-,N/A,,Scattered Clouds,150,2013-03-11 11:22:00
7:54 AM,42.1,37.9,85,30.21,10.0,SSE,8.1,-,N/A,,Partly Cloudy,160,2013-03-11 11:54:00
8:54 AM,44.1,39.0,82,30.20,10.0,SE,8.1,-,N/A,,Scattered Clouds,140,2013-03-11 12:54:00
9:30 AM,44.6,39.2,81,30.19,10.0,SSE,6.9,-,N/A,,Mostly Cloudy,150,2013-03-11 13:30:00
9:54 AM,46.0,39.9,79,30.21,10.0,South,5.8,-,N/A,,Scattered Clouds,170,2013-03-11 13:54:00
10:54 AM,48.9,41.0,74,30.20,10.0,Variable,3.5,-,N/A,,Scattered Clouds,0,2013-03-11 14:54:00
11:01 AM,48.2,41.0,76,30.17,10.0,ESE,3.5,-,N/A,,Mostly Cloudy,110,2013-03-11 15:01:00
11:15 AM,48.2,41.0,76,30.17,10.0,SSE,3.5,-,N/A,,Scattered Clouds,150,2013-03-11 15:15:00
11:54 AM,50.0,41.0,71,30.18,10.0,Variable,3.5,-,N/A,,Clear,0,2013-03-11 15:54:00
12:54 PM,54.0,39.9,59,30.17,10.0,Variable,4.6,-,N/A,,Clear,0,2013-03-11 16:54:00
1:54 PM,57.9,37.0,46,30.14,10.0,South,6.9,-,N/A,,Clear,170,2013-03-11 17:54:00
2:54 PM,59.0,34.0,39,30.10,10.0,SSE,10.4,16.1,N/A,,Scattered Clouds,150,2013-03-11 18:54:00
3:54 PM,57.9,39.9,51,30.08,10.0,SSE,9.2,17.3,N/A,,Mostly Cloudy,150,2013-03-11 19:54:00
4:54 PM,57.9,44.1,60,30.07,10.0,SSE,11.5,-,N/A,,Scattered Clouds,160,2013-03-11 20:54:00
5:54 PM,57.0,44.1,62,30.04,10.0,SE,11.5,-,N/A,,Mostly Cloudy,130,2013-03-11 21:54:00
7:54 PM,55.9,45.0,67,30.05,10.0,SSE,8.1,-,N/A,,Overcast,150,2013-03-11 23:54:00
8:54 PM,55.0,46.0,72,30.03,10.0,SSE,11.5,19.6,N/A,,Clear,150,2013-03-12 00:54:00
9:54 PM,55.0,46.9,74,30.03,10.0,SSE,12.7,19.6,N/A,,Mostly Cloudy,150,2013-03-12 01:54:00
10:54 PM,55.0,46.9,74,30.03,10.0,SSE,9.2,-,N/A,,Overcast,160,2013-03-12 02:54:00
11:54 PM,55.0,46.9,74,30.00,10.0,SSE,13.8,24.2,0.00,Rain,Light Rain,150,2013-03-12 03:54:00